View from above orbital plane
|
View from above satellite
|
Ground track
|
The orbit data is extracted from the following two-line orbital elements,
1 20580U 90037B 21055.81038556 .00000691 00000-0 30962-4 0 9993
2 20580 28.4699 90.3649 0002426 291.9937 231.0981 15.09564607494059
Epoch (UTC): | 24 February 2021 19:26:57 |
Eccentricity: | 0.0002426 |
inclination: | 28.4699° |
perigee height: | 536 km |
apogee height: | 539 km |
right ascension of ascending node: | 90.3649° |
argument of perigee: | 291.9937° |
revolutions per day: | 15.09564607 |
mean anomaly at epoch: | 231.0981° |
orbit number at epoch: | 49405 |
The dashed part of the orbit path shows where the satellite is in the earth's shadow,
|
|